Medford

Airport
ICAO code: 
KMFR
Summary
ICAO Region: 
NAM
Territory: 
Location: 
Medford, Jackson County, Oregon,
Coordinates: 
Aerial View: 
42° 22' 27.116" N, 122° 52' 22.804" W
Airport BS: 
Non Avian Wildlife Hazards to Aircraft
Metar
Observation
KMFR 262353Z 00000KT 10SM CLR 13/M07 A3015 RMK AO2 SLP215 T01331067 10139 20006 56011
Station
Medford, Rogue Valley International Airport
Date/Time
2022-01-26 23:53:00
Wind direction
Wind speed
00 kts
Lowest cloud amount
n/a
Temperature
13.3°C
Dew point
-6.7°C
Humidity
24%
Weather condition
n/a

Description

Rogue Valley International-Medford Airport is a public airport located 5 km north of downtown Medford in Jackson County, Oregon, USA. In addition to Jackson County, the airport serves seven nearby counties in southwest Oregon.

Climatology

Dry-summer subtropical ”Mediterranean" climate (Köppen climate classification Csa) - characterized by hot, dry summers and mild winters. During the summer, subtropical high pressure cells dominate, making rainfall unlikely except for the occasional thunderstorm. In the winter, periodic storms bring rain (snow at higher elevations).

Runways

Designator Length Width Surface Rops
9/27 956 30 ASP Yes/Yes
14/32 2682 46 ASP Yes/Yes
Airport map: 
Aerial View: 

Accidents and Serious Incidents at or in the vicinity of KMFR

SKYbrary Partners:

Safety knowledge contributed by: